Wind_Speed
38 40 41 41 39 37 35 33 32 31 29 28 26 25 23 22 22 22 21 21 21 22 23 23 24 23 24 26 28 29 28 27 26 24 23 22 21 19 18 17 16 14 13
41 41 41 43 41 39 37 35 34 33 31 29 27 25 23 22 22 22 22 22 21 21 22 23 23 23 23 24 26 28 28 28 28 28 26 25 24 22 21 19 18 17 16
41 41 41 42 41 39 39 37 36 34 33 31 28 27 25 24 24 23 23 23 22 21 21 22 23 24 24 23 25 26 28 29 30 31 30 29 27 25 24 22 21 19 18
39 39 39 40 41 41 40 38 37 36 34 32 30 29 27 26 25 24 24 23 22 22 22 22 23 23 23 24 24 25 25 27 29 30 32 31 30 28 27 25 24 22 20
36 35 37 38 40 41 41 39 38 36 35 33 31 30 29 28 27 25 25 24 23 22 21 21 22 22 22 23 24 24 24 25 25 27 29 33 32 31 30 29 27 26 24
31 32 36 38 40 41 40 39 38 36 35 34 33 32 30 29 27 26 26 25 24 22 21 20 19 19 20 21 22 23 23 23 24 25 27 30 32 33 33 32 31 29 27
28 30 34 38 40 40 39 39 37 36 36 35 34 32 31 30 28 27 26 25 24 22 20 18 17 16 16 17 18 20 21 22 23 24 26 28 29 31 33 34 34 33 31
28 29 31 33 36 40 40 38 36 36 35 34 34 33 32 30 29 28 27 26 25 23 21 19 17 15 14 14 15 16 17 18 20 22 23 25 27 29 31 33 35 35 34
31 30 30 32 34 35 36 36 37 36 35 34 33 32 32 31 29 28 28 27 26 24 22 20 17 16 15 14 14 14 15 17 18 20 22 24 27 28 30 30 31 34 35
35 33 32 32 34 34 34 36 36 36 34 33 33 32 32 31 30 29 29 29 28 26 23 21 19 17 16 14 14 14 14 15 17 19 21 23 25 26 28 30 31 32 34
40 38 36 35 35 36 36 37 37 37 36 35 35 34 33 32 32 31 31 30 30 28 25 23 20 18 17 15 14 14 14 14 16 18 20 22 24 26 27 29 30 30 31
43 43 42 41 40 40 39 39 39 39 38 37 37 36 35 35 34 34 34 33 32 30 28 25 22 20 18 17 15 15 15 15 16 18 20 21 24 26 28 29 30 30 30
44 45 46 46 46 45 44 44 43 43 41 40 39 39 38 38 38 37 36 36 34 32 30 28 25 22 20 18 17 16 15 15 16 18 19 21 23 25 27 29 30 30 31
44 45 46 48 50 51 51 50 49 48 47 45 43 43 42 41 41 40 39 38 37 35 34 31 28 26 23 20 19 18 16 16 17 17 19 21 22 24 26 28 29 31 31
44 46 47 49 51 53 55 56 56 55 53 50 48 47 46 45 45 44 43 42 40 39 37 35 32 29 26 23 21 20 18 17 17 18 18 20 22 23 25 27 28 29 31
48 49 50 51 52 54 56 59 60 61 60 57 55 52 50 50 48 47 47 45 44 42 40 38 36 33 30 27 24 22 20 18 18 18 19 19 21 22 24 25 26 28 29
52 53 54 54 55 56 57 59 62 64 65 64 61 59 55 53 52 51 50 49 47 46 43 41 39 36 33 30 27 24 22 20 19 19 19 20 20 21 23 24 25 26 27
55 56 57 58 58 59 60 61 63 65 67 69 68 66 63 59 56 54 54 52 50 49 47 44 42 39 36 33 30 27 25 22 21 20 20 21 21 22 23 24 25 25 25
56 57 58 59 60 61 62 63 64 66 69 70 72 72 69 66 62 58 56 55 53 51 50 48 45 42 38 35 32 30 27 25 23 22 21 22 22 22 23 23 24 25 25
55 56 57 58 60 62 63 64 65 67 69 71 73 74 75 71 67 64 59 57 56 54 52 50 48 45 41 38 35 32 30 27 25 24 22 22 23 23 23 23 24 24 23
54 54 55 56 57 59 61 62 63 65 67 70 73 75 77 77 73 68 65 61 59 57 54 52 50 48 45 41 38 35 32 30 27 25 24 23 23 23 23 23 24 24 24
52 51 50 51 53 54 56 57 58 61 62 64 69 73 77 78 78 73 69 66 62 59 55 54 52 50 47 45 42 38 35 32 29 27 25 24 23 23 22 23 23 24 24
48 46 45 46 47 49 52 53 54 55 56 57 60 65 72 76 79 78 74 69 67 62 59 56 53 52 50 47 45 41 38 35 31 29 26 24 23 23 23 23 23 24 24
43 40 38 39 41 43 45 48 49 49 49 49 51 55 61 69 74 77 76 73 69 64 61 59 55 52 51 49 47 45 41 37 33 30 27 24 24 23 23 23 23 23 24
36 34 33 33 34 37 40 43 44 44 44 44 44 46 50 56 65 71 73 73 72 68 63 59 59 56 54 51 49 46 42 38 34 31 28 25 24 24 23 23 23 22 22
31 27 26 26 28 31 34 37 39 39 40 40 40 40 42 47 54 62 68 71 72 69 66 62 59 58 55 53 49 46 43 39 35 31 28 26 25 24 23 22 22 21 21
Wind_Direction
282 275 270 265 261 260 257 256 257 257 255 258 258 256 254 251 250 249 249 252 254 255 253 253 251 252 252 248 241 236 234 231 228 226 225 224 225 226 228 228 227 227 228
281 273 267 262 258 256 254 253 253 253 253 255 255 253 252 251 251 248 248 252 253 253 253 252 251 251 253 250 244 240 237 235 232 229 227 226 225 227 229 231 230 229 229
282 271 263 258 254 254 251 250 250 251 252 252 251 251 251 249 249 249 248 250 251 251 250 251 250 249 250 250 247 244 243 242 238 234 230 228 227 226 228 231 232 232 232
279 268 259 254 251 250 250 249 249 249 251 251 250 249 248 247 247 248 248 248 248 248 248 249 249 249 249 249 249 247 248 246 243 239 235 230 228 227 228 230 232 233 234
277 262 255 251 249 247 247 248 249 249 249 249 248 248 248 246 246 247 246 246 246 247 247 246 246 248 248 248 248 250 250 248 244 244 240 235 231 229 230 229 231 233 234
275 261 254 248 248 247 247 247 247 247 247 249 249 248 248 246 245 244 244 244 244 244 243 244 243 243 245 246 248 250 251 252 248 247 243 238 236 234 232 232 233 234 234
279 267 255 249 245 245 247 247 246 246 246 248 248 247 247 246 244 242 241 240 238 237 237 237 237 239 241 244 248 250 251 253 252 250 247 242 242 241 239 236 236 236 235
283 273 260 252 248 246 245 245 242 243 245 246 247 247 245 244 241 239 236 234 233 232 231 231 233 234 237 241 246 251 254 256 255 254 253 249 248 246 245 244 241 239 236
281 276 263 257 253 248 244 243 243 242 243 245 246 245 243 241 238 236 232 230 229 229 228 229 231 235 239 242 245 250 255 258 260 260 259 254 251 249 246 246 246 244 240
275 272 268 261 255 251 247 246 243 241 241 242 243 243 241 239 236 233 230 228 227 227 228 229 231 234 238 241 246 252 257 262 264 265 264 261 257 254 251 247 247 247 245
271 268 265 261 257 253 251 249 245 243 241 240 240 239 237 236 234 231 229 227 226 226 227 228 230 233 236 241 247 254 260 265 269 269 267 264 260 258 256 252 249 248 247
270 266 262 258 255 253 250 249 248 244 242 240 238 236 234 233 232 230 229 227 226 225 226 226 228 231 235 240 247 254 261 268 272 274 273 269 264 260 257 255 253 250 249
272 267 263 259 255 252 250 249 248 246 244 242 239 236 234 232 231 230 229 227 226 225 226 226 228 231 235 240 247 255 262 269 275 278 279 276 269 263 259 255 253 252 250
275 271 266 262 258 253 250 249 247 246 245 243 240 237 234 232 231 229 228 227 226 226 225 226 228 231 235 240 247 253 261 269 275 279 282 279 273 267 261 257 254 252 251
277 273 269 265 261 256 252 248 246 245 244 243 242 239 236 233 231 230 229 228 228 227 225 225 228 231 234 238 245 251 259 268 275 279 282 281 274 268 264 259 256 253 251
276 273 270 266 262 259 254 250 246 244 242 242 241 240 237 234 232 230 229 229 228 228 227 226 227 230 233 237 243 249 256 265 273 278 281 282 275 268 265 261 257 253 251
278 273 269 265 261 258 255 251 247 244 242 241 241 240 238 236 233 231 230 229 229 229 229 228 228 228 231 235 240 247 253 260 270 276 279 280 276 269 265 262 257 253 251
279 275 270 265 261 258 254 252 248 244 242 240 239 238 238 237 234 232 230 230 229 229 229 230 229 229 230 232 237 243 249 257 265 273 276 278 277 272 267 262 256 253 251
282 276 272 266 262 257 254 251 248 245 242 240 238 237 237 236 235 232 230 229 229 229 229 230 230 230 230 231 235 240 246 253 260 269 274 275 276 272 267 261 257 254 251
285 279 273 268 263 258 254 250 247 245 242 240 238 236 236 236 235 233 230 228 228 228 228 229 230 230 230 230 233 237 242 249 255 264 271 273 274 272 267 261 256 253 250
288 281 274 268 263 257 253 250 246 244 242 240 238 236 235 235 234 234 232 229 227 227 227 228 229 230 230 230 232 234 239 245 251 259 266 270 272 270 266 261 255 252 248
291 284 276 268 262 256 251 248 245 242 241 239 237 235 234 234 233 232 232 231 229 227 226 227 227 228 228 229 230 232 236 241 246 253 261 267 270 268 265 261 255 251 249
293 286 277 268 260 254 249 245 241 239 238 237 236 235 234 232 232 232 231 230 229 228 227 227 226 227 227 228 229 230 232 236 242 249 256 263 267 267 263 258 254 250 248
297 288 278 269 259 251 245 241 238 235 233 233 233 232 232 232 231 231 230 229 229 230 228 227 227 226 225 225 226 228 229 233 238 245 251 258 262 263 262 257 253 249 247
301 290 279 268 256 247 241 237 233 229 228 228 229 229 229 229 230 229 229 229 229 230 230 230 228 227 225 224 224 225 226 230 234 239 245 252 257 259 258 255 251 249 247
309 295 283 268 253 241 236 233 227 223 223 223 224 225 225 225 226 227 227 228 228 229 231 231 229 226 224 223 222 221 222 225 229 234 240 246 251 254 253 250 249 249 249
Height
5850 5848 5847 5847 5848 5849 5851 5853 5854 5855 5856 5856 5856 5857 5858 5859 5861 5862 5863 5864 5865 5866 5867 5868 5869 5870 5871 5873 5874 5877 5879 5881 5883 5885 5888 5890 5893 5895 5898 5900 5902 5904 5905
5840 5838 5838 5838 5839 5840 5842 5844 5846 5848 5849 5850 5850 5851 5852 5853 5855 5856 5858 5859 5860 5861 5862 5863 5864 5865 5866 5867 5869 5871 5874 5876 5878 5880 5883 5886 5889 5891 5894 5896 5899 5901 5903
5829 5828 5827 5829 5831 5832 5834 5836 5838 5840 5841 5843 5844 5844 5846 5847 5849 5850 5851 5853 5854 5855 5856 5857 5858 5859 5861 5862 5863 5865 5868 5870 5872 5875 5877 5881 5883 5887 5890 5893 5895 5898 5900
5818 5817 5817 5819 5822 5823 5825 5828 5830 5832 5834 5835 5836 5837 5839 5840 5842 5844 5845 5847 5848 5850 5851 5852 5853 5854 5855 5856 5858 5860 5862 5864 5867 5869 5872 5875 5878 5881 5884 5888 5891 5894 5896
5808 5807 5809 5811 5813 5814 5817 5819 5822 5823 5825 5827 5829 5831 5832 5834 5836 5838 5839 5841 5842 5844 5845 5847 5848 5849 5850 5852 5853 5855 5857 5859 5861 5864 5866 5869 5872 5875 5879 5882 5886 5889 5892
5800 5799 5801 5802 5804 5806 5808 5811 5814 5816 5818 5820 5822 5824 5826 5827 5829 5831 5833 5834 5836 5838 5840 5842 5843 5844 5846 5847 5849 5851 5853 5854 5856 5858 5861 5863 5866 5869 5873 5876 5880 5883 5886
5794 5793 5793 5794 5795 5798 5801 5803 5806 5808 5810 5812 5815 5817 5819 5820 5822 5824 5826 5828 5831 5833 5835 5837 5838 5840 5842 5843 5845 5847 5848 5850 5851 5853 5856 5858 5861 5863 5866 5869 5873 5876 5880
5789 5787 5786 5785 5787 5790 5792 5794 5797 5800 5802 5804 5807 5809 5811 5814 5815 5817 5820 5823 5825 5828 5830 5832 5834 5836 5837 5839 5841 5843 5844 5846 5847 5849 5850 5853 5855 5858 5860 5863 5866 5869 5873
5782 5781 5780 5780 5781 5782 5783 5786 5788 5791 5793 5796 5798 5801 5804 5806 5808 5812 5814 5817 5820 5822 5825 5827 5830 5832 5834 5835 5837 5839 5840 5842 5843 5844 5846 5848 5850 5852 5854 5856 5859 5862 5865
5774 5773 5773 5772 5773 5774 5775 5777 5779 5781 5784 5787 5790 5793 5796 5798 5802 5805 5808 5811 5814 5817 5819 5822 5824 5827 5829 5831 5833 5835 5836 5838 5839 5840 5842 5843 5844 5846 5848 5851 5853 5855 5858
5764 5763 5763 5763 5764 5765 5766 5768 5770 5772 5775 5778 5781 5784 5787 5791 5794 5797 5801 5804 5808 5811 5814 5817 5819 5822 5825 5827 5829 5831 5832 5834 5835 5836 5837 5838 5839 5841 5843 5845 5847 5849 5851
5752 5751 5752 5753 5753 5754 5756 5758 5761 5763 5765 5768 5771 5775 5778 5782 5786 5790 5793 5797 5801 5805 5808 5811 5814 5817 5820 5822 5825 5827 5828 5829 5830 5831 5832 5833 5834 5835 5837 5839 5841 5843 5845
5738 5738 5739 5740 5741 5743 5745 5747 5749 5752 5755 5758 5761 5765 5768 5773 5777 5781 5786 5790 5794 5798 5802 5805 5809 5812 5815 5818 5820 5822 5824 5825 5826 5826 5827 5827 5828 5829 5831 5832 5834 5836 5838
5724 5724 5724 5725 5727 5729 5732 5734 5737 5740 5744 5747 5751 5755 5758 5763 5767 5772 5777 5781 5786 5791 5795 5798 5802 5806 5809 5812 5815 5817 5819 5820 5821 5821 5822 5822 5822 5823 5824 5826 5827 5829 5831
5711 5710 5709 5709 5710 5713 5716 5719 5722 5726 5730 5734 5739 5743 5747 5752 5757 5762 5767 5773 5778 5782 5787 5791 5795 5799 5803 5806 5809 5812 5813 5815 5815 5816 5816 5817 5817 5817 5818 5819 5821 5822 5824
5697 5695 5694 5693 5694 5695 5698 5701 5706 5710 5715 5720 5724 5729 5735 5740 5746 5751 5757 5762 5768 5773 5778 5783 5788 5792 5796 5800 5803 5806 5808 5809 5810 5811 5811 5811 5812 5812 5812 5813 5814 5815 5817
5680 5678 5676 5676 5676 5677 5679 5682 5687 5692 5698 5704 5709 5715 5721 5727 5733 5739 5745 5751 5757 5763 5768 5774 5779 5784 5789 5793 5796 5799 5802 5804 5805 5806 5806 5806 5806 5806 5807 5808 5808 5809 5811
5660 5657 5656 5655 5656 5657 5659 5662 5667 5672 5679 5686 5692 5699 5705 5712 5718 5725 5732 5739 5745 5752 5758 5764 5770 5776 5781 5785 5789 5792 5795 5797 5799 5800 5801 5801 5801 5801 5801 5802 5803 5804 5805
5637 5634 5632 5632 5633 5635 5637 5641 5645 5651 5658 5665 5673 5681 5688 5695 5703 5710 5717 5725 5733 5740 5747 5753 5760 5766 5772 5777 5781 5785 5788 5791 5793 5794 5795 5795 5796 5796 5796 5796 5797 5798 5800
5614 5610 5608 5608 5609 5611 5614 5618 5623 5629 5636 5644 5652 5661 5670 5678 5686 5694 5702 5711 5719 5727 5734 5742 5749 5756 5762 5767 5773 5777 5781 5784 5786 5788 5789 5790 5790 5790 5790 5791 5792 5793 5794
5591 5587 5584 5583 5584 5586 5591 5595 5601 5607 5614 5622 5631 5641 5650 5659 5669 5678 5687 5696 5704 5712 5721 5729 5737 5745 5752 5758 5763 5768 5773 5776 5779 5781 5783 5784 5784 5785 5785 5785 5786 5787 5789
5569 5564 5561 5560 5561 5564 5569 5574 5580 5586 5594 5602 5611 5621 5630 5640 5651 5662 5672 5681 5690 5698 5708 5717 5725 5733 5741 5748 5754 5759 5765 5769 5772 5775 5776 5778 5778 5779 5779 5779 5780 5782 5784
5549 5543 5540 5539 5540 5543 5548 5554 5561 5568 5577 5585 5593 5602 5611 5621 5633 5645 5656 5666 5675 5684 5695 5704 5712 5721 5729 5737 5744 5750 5755 5760 5764 5767 5770 5771 5772 5773 5773 5774 5775 5776 5778
5531 5525 5522 5521 5522 5526 5530 5537 5544 5553 5562 5570 5578 5586 5594 5604 5615 5627 5639 5651 5660 5670 5681 5692 5701 5710 5717 5725 5732 5739 5746 5752 5756 5760 5763 5765 5766 5767 5768 5768 5769 5771 5773
5515 5510 5507 5506 5507 5511 5516 5522 5531 5540 5550 5558 5566 5573 5581 5589 5599 5611 5625 5637 5648 5657 5667 5678 5688 5697 5705 5714 5722 5730 5737 5743 5748 5752 5756 5758 5760 5761 5761 5763 5764 5766 5767
5504 5498 5495 5494 5496 5500 5505 5511 5520 5530 5539 5548 5556 5563 5570 5578 5585 5596 5608 5620 5633 5644 5656 5666 5676 5685 5694 5703 5711 5720 5727 5734 5740 5744 5748 5751 5753 5755 5756 5757 5759 5760 5762